Time,TemperatureF,DewpointF,PressureIn,WindDirection,WindDirectionDegrees,WindSpeedMPH,WindSpeedGustMPH,Humidity,HourlyPrecipIn,Conditions,Clouds,dailyrainin,SoftwareType,DateUTC
2013-02-22 00:01:00,35.0,31.0,-100.00,North,4,2.0,4.0,86,-99.99,,,-99.99,,2013-02-22 08:01:00,
2013-02-22 00:11:00,34.0,30.0,-100.00,ENE,61,2.0,3.0,85,-99.99,,,-99.99,,2013-02-22 08:11:00,
2013-02-22 00:21:00,32.0,29.0,-100.00,NNE,29,1.0,3.0,88,-99.99,,,-99.99,,2013-02-22 08:21:00,
2013-02-22 00:31:00,33.0,30.0,-100.00,North,360,2.0,4.0,90,-99.99,,,-99.99,,2013-02-22 08:31:00,
2013-02-22 00:41:00,32.0,29.0,-100.00,ENE,76,3.0,5.0,89,-99.99,,,-99.99,,2013-02-22 08:41:00,
2013-02-22 00:52:00,30.0,27.0,-100.00,NE,39,3.0,4.0,90,-99.99,,,-99.99,,2013-02-22 08:52:00,
2013-02-22 01:03:00,31.0,29.0,-100.00,NNE,28,3.0,4.0,91,-99.99,,,-99.99,,2013-02-22 09:03:00,
2013-02-22 01:11:00,32.0,30.0,-100.00,North,350,2.0,4.0,91,-99.99,,,-99.99,,2013-02-22 09:11:00,
2013-02-22 01:21:00,34.0,31.0,-100.00,NNW,335,3.0,5.0,90,-99.99,,,-99.99,,2013-02-22 09:21:00,
2013-02-22 01:31:00,33.0,29.0,-100.00,NE,53,4.0,9.0,85,-99.99,,,-99.99,,2013-02-22 09:31:00,
2013-02-22 01:41:00,31.0,28.0,-100.00,ENE,59,3.0,6.0,88,-99.99,,,-99.99,,2013-02-22 09:41:00,
2013-02-22 01:51:00,31.0,28.0,-100.00,ENE,72,1.0,3.0,90,-99.99,,,-99.99,,2013-02-22 09:51:00,
2013-02-22 02:01:00,32.0,29.0,-100.00,NE,51,3.0,5.0,90,-99.99,,,-99.99,,2013-02-22 10:01:00,
2013-02-22 02:11:00,32.0,29.0,-100.00,North,359,3.0,6.0,89,-99.99,,,-99.99,,2013-02-22 10:11:00,
2013-02-22 02:21:00,33.0,30.0,-100.00,NNE,31,3.0,6.0,89,-99.99,,,-99.99,,2013-02-22 10:21:00,
2013-02-22 02:31:00,32.0,29.0,-100.00,ENE,67,3.0,4.0,89,-99.99,,,-99.99,,2013-02-22 10:31:00,
2013-02-22 02:42:00,31.0,28.0,-100.00,NE,35,3.0,5.0,90,-99.99,,,-99.99,,2013-02-22 10:42:00,
2013-02-22 02:51:00,33.0,31.0,-100.00,NNE,21,5.0,6.0,91,-99.99,,,-99.99,,2013-02-22 10:51:00,
2013-02-22 03:01:00,34.0,31.0,-100.00,NNE,21,2.0,4.0,90,-99.99,,,-99.99,,2013-02-22 11:01:00,
2013-02-22 03:11:00,33.0,30.0,-100.00,NE,44,4.0,5.0,88,-99.99,,,-99.99,,2013-02-22 11:11:00,
2013-02-22 03:21:00,32.0,29.0,-100.00,NE,49,4.0,6.0,88,-99.99,,,-99.99,,2013-02-22 11:21:00,
2013-02-22 03:31:00,30.0,28.0,-100.00,NE,41,5.0,6.0,91,-99.99,,,-99.99,,2013-02-22 11:31:00,
2013-02-22 03:42:00,32.0,29.0,-100.00,NE,37,5.0,7.0,89,-99.99,,,-99.99,,2013-02-22 11:42:00,
2013-02-22 03:52:00,33.0,28.0,-100.00,NNE,23,5.0,7.0,83,-99.99,,,-99.99,,2013-02-22 11:52:00,
2013-02-22 04:01:00,34.0,29.0,-100.00,NNE,18,4.0,6.0,83,-99.99,,,-99.99,,2013-02-22 12:01:00,
2013-02-22 04:11:00,35.0,29.0,-100.00,NNE,22,4.0,5.0,80,-99.99,,,-99.99,,2013-02-22 12:11:00,
2013-02-22 04:21:00,35.0,28.0,-100.00,NE,45,3.0,4.0,76,-99.99,,,-99.99,,2013-02-22 12:21:00,
2013-02-22 04:32:00,34.0,28.0,-100.00,NE,34,3.0,4.0,79,-99.99,,,-99.99,,2013-02-22 12:32:00,
2013-02-22 04:42:00,34.0,28.0,-100.00,NNE,24,3.0,4.0,79,-99.99,,,-99.99,,2013-02-22 12:42:00,
2013-02-22 04:52:00,34.0,27.0,-100.00,NNE,31,2.0,4.0,76,-99.99,,,-99.99,,2013-02-22 12:52:00,
2013-02-22 05:01:00,33.0,27.0,-100.00,NNE,30,2.0,3.0,78,-99.99,,,-99.99,,2013-02-22 13:01:00,
2013-02-22 05:11:00,33.0,26.0,-100.00,NE,48,2.0,3.0,76,-99.99,,,-99.99,,2013-02-22 13:11:00,
2013-02-22 05:22:00,31.0,26.0,-100.00,North,3,2.0,3.0,82,-99.99,,,-99.99,,2013-02-22 13:22:00,
2013-02-22 05:31:00,31.0,26.0,-100.00,NNE,14,2.0,3.0,83,-99.99,,,-99.99,,2013-02-22 13:31:00,
2013-02-22 05:41:00,32.0,26.0,-100.00,NE,38,2.0,4.0,79,-99.99,,,-99.99,,2013-02-22 13:41:00,
2013-02-22 05:51:00,29.0,25.0,-100.00,NE,44,3.0,4.0,85,-99.99,,,-99.99,,2013-02-22 13:51:00,
2013-02-22 06:01:00,28.0,25.0,-100.00,NNE,25,3.0,5.0,88,-99.99,,,-99.99,,2013-02-22 14:01:00,
2013-02-22 06:11:00,31.0,26.0,-100.00,NNE,13,3.0,4.0,83,-99.99,,,-99.99,,2013-02-22 14:11:00,
2013-02-22 06:21:00,33.0,25.0,-100.00,NNE,19,3.0,5.0,72,-99.99,,,-99.99,,2013-02-22 14:21:00,
2013-02-22 06:32:00,34.0,25.0,-100.00,NNE,25,2.0,4.0,68,-99.99,,,-99.99,,2013-02-22 14:32:00,
2013-02-22 06:41:00,33.0,24.0,-100.00,NNE,26,2.0,3.0,70,-99.99,,,-99.99,,2013-02-22 14:41:00,
2013-02-22 06:52:00,31.0,24.0,-100.00,NNE,29,2.0,4.0,75,-99.99,,,-99.99,,2013-02-22 14:52:00,
2013-02-22 07:01:00,28.0,24.0,-100.00,NE,51,4.0,6.0,84,-99.99,,,-99.99,,2013-02-22 15:01:00,
2013-02-22 07:11:00,29.0,25.0,-100.00,NE,35,3.0,4.0,86,-99.99,,,-99.99,,2013-02-22 15:11:00,
2013-02-22 07:21:00,31.0,24.0,-100.00,NE,46,4.0,6.0,76,-99.99,,,-99.99,,2013-02-22 15:21:00,
2013-02-22 07:31:00,33.0,25.0,-100.00,NE,40,4.0,6.0,71,-99.99,,,-99.99,,2013-02-22 15:31:00,
2013-02-22 07:41:00,35.0,25.0,-100.00,NE,47,5.0,6.0,66,-99.99,,,-99.99,,2013-02-22 15:41:00,
2013-02-22 07:51:00,33.0,26.0,-100.00,NE,44,5.0,7.0,75,-99.99,,,-99.99,,2013-02-22 15:51:00,
2013-02-22 08:01:00,35.0,26.0,-100.00,NE,35,4.0,6.0,68,-99.99,,,-99.99,,2013-02-22 16:01:00,
2013-02-22 08:11:00,38.0,25.0,-100.00,NNE,27,4.0,6.0,59,-99.99,,,-99.99,,2013-02-22 16:11:00,
2013-02-22 08:21:00,40.0,23.0,-100.00,NE,35,4.0,5.0,51,-99.99,,,-99.99,,2013-02-22 16:21:00,
2013-02-22 08:31:00,41.0,25.0,-100.00,NE,45,5.0,6.0,52,-99.99,,,-99.99,,2013-02-22 16:31:00,
2013-02-22 08:41:00,41.0,28.0,-100.00,NE,49,4.0,6.0,59,-99.99,,,-99.99,,2013-02-22 16:41:00,
2013-02-22 08:52:00,43.0,30.0,-100.00,NE,52,3.0,4.0,61,-99.99,,,-99.99,,2013-02-22 16:52:00,
2013-02-22 09:01:00,45.0,32.0,-100.00,NE,55,3.0,4.0,61,-99.99,,,-99.99,,2013-02-22 17:01:00,
2013-02-22 09:11:00,48.0,31.0,-100.00,NE,43,2.0,3.0,51,-99.99,,,-99.99,,2013-02-22 17:11:00,
2013-02-22 09:21:00,50.0,23.0,-100.00,NE,41,3.0,5.0,35,-99.99,,,-99.99,,2013-02-22 17:21:00,
2013-02-22 09:31:00,51.0,18.0,-100.00,NE,40,3.0,6.0,27,-99.99,,,-99.99,,2013-02-22 17:31:00,
2013-02-22 09:41:00,51.0,12.0,-100.00,NNE,16,5.0,10.0,21,-99.99,,,-99.99,,2013-02-22 17:41:00,
2013-02-22 09:52:00,52.0,14.0,-100.00,NNE,17,5.0,8.0,22,-99.99,,,-99.99,,2013-02-22 17:52:00,
2013-02-22 10:01:00,52.0,13.0,-100.00,NNE,15,6.0,10.0,21,-99.99,,,-99.99,,2013-02-22 18:01:00,
2013-02-22 10:11:00,53.0,14.0,-100.00,North,360,3.0,6.0,21,-99.99,,,-99.99,,2013-02-22 18:11:00,
2013-02-22 10:22:00,54.0,18.0,-100.00,West,264,2.0,6.0,24,-99.99,,,-99.99,,2013-02-22 18:22:00,
2013-02-22 10:31:00,54.0,14.0,-100.00,North,357,4.0,9.0,20,-99.99,,,-99.99,,2013-02-22 18:31:00,
2013-02-22 10:42:00,53.0,13.0,-100.00,NNW,340,6.0,13.0,20,-99.99,,,-99.99,,2013-02-22 18:42:00,
2013-02-22 10:51:00,53.0,12.0,-100.00,North,357,4.0,9.0,19,-99.99,,,-99.99,,2013-02-22 18:51:00,
2013-02-22 11:01:00,53.0,12.0,-100.00,North,357,4.0,9.0,19,-99.99,,,-99.99,,2013-02-22 19:01:00,
2013-02-22 11:11:00,53.0,13.0,-100.00,North,4,5.0,11.0,20,-99.99,,,-99.99,,2013-02-22 19:11:00,
2013-02-22 11:21:00,53.0,14.0,-100.00,North,10,5.0,9.0,21,-99.99,,,-99.99,,2013-02-22 19:21:00,
2013-02-22 11:31:00,54.0,15.0,-100.00,NNW,347,4.0,8.0,21,-99.99,,,-99.99,,2013-02-22 19:31:00,
2013-02-22 11:41:00,54.0,16.0,-100.00,NNW,342,4.0,11.0,22,-99.99,,,-99.99,,2013-02-22 19:41:00,
2013-02-22 11:52:00,54.0,16.0,-100.00,NNW,348,6.0,10.0,22,-99.99,,,-99.99,,2013-02-22 19:52:00,
2013-02-22 12:01:00,54.0,14.0,-100.00,North,6,5.0,8.0,20,-99.99,,,-99.99,,2013-02-22 20:01:00,
2013-02-22 12:11:00,54.0,15.0,-100.00,North,352,5.0,9.0,21,-99.99,,,-99.99,,2013-02-22 20:11:00,
2013-02-22 12:21:00,54.0,14.0,-100.00,NNE,22,4.0,8.0,20,-99.99,,,-99.99,,2013-02-22 20:21:00,
2013-02-22 12:31:00,55.0,15.0,-100.00,NW,324,6.0,13.0,20,-99.99,,,-99.99,,2013-02-22 20:31:00,
2013-02-22 12:41:00,55.0,16.0,-100.00,NW,312,4.0,12.0,21,-99.99,,,-99.99,,2013-02-22 20:41:00,
2013-02-22 12:52:00,55.0,16.0,-100.00,North,8,6.0,10.0,21,-99.99,,,-99.99,,2013-02-22 20:52:00,
2013-02-22 13:01:00,55.0,15.0,-100.00,NNE,21,5.0,12.0,20,-99.99,,,-99.99,,2013-02-22 21:01:00,
2013-02-22 13:11:00,56.0,16.0,-100.00,SSE,156,3.0,8.0,20,-99.99,,,-99.99,,2013-02-22 21:11:00,
2013-02-22 13:21:00,56.0,17.0,-100.00,NW,311,5.0,10.0,21,-99.99,,,-99.99,,2013-02-22 21:21:00,
2013-02-22 13:31:00,56.0,16.0,-100.00,North,8,3.0,10.0,20,-99.99,,,-99.99,,2013-02-22 21:31:00,
2013-02-22 13:41:00,57.0,19.0,-100.00,NW,317,4.0,10.0,22,-99.99,,,-99.99,,2013-02-22 21:41:00,
2013-02-22 13:51:00,56.0,18.0,-100.00,NW,307,4.0,8.0,22,-99.99,,,-99.99,,2013-02-22 21:51:00,
2013-02-22 14:01:00,56.0,22.0,-100.00,West,272,7.0,16.0,26,-99.99,,,-99.99,,2013-02-22 22:01:00,
2013-02-22 14:11:00,57.0,20.0,-100.00,NNW,343,3.0,8.0,23,-99.99,,,-99.99,,2013-02-22 22:11:00,
2013-02-22 14:21:00,57.0,21.0,-100.00,NE,44,3.0,8.0,24,-99.99,,,-99.99,,2013-02-22 22:21:00,
2013-02-22 14:31:00,57.0,21.0,-100.00,NNW,336,6.0,10.0,24,-99.99,,,-99.99,,2013-02-22 22:31:00,
2013-02-22 14:41:00,56.0,22.0,-100.00,NW,312,4.0,12.0,26,-99.99,,,-99.99,,2013-02-22 22:41:00,
2013-02-22 14:51:00,58.0,21.0,-100.00,North,351,2.0,7.0,24,-99.99,,,-99.99,,2013-02-22 22:51:00,
2013-02-22 15:01:00,57.0,21.0,-100.00,WNW,298,6.0,12.0,24,-99.99,,,-99.99,,2013-02-22 23:01:00,
2013-02-22 15:11:00,57.0,22.0,-100.00,West,272,6.0,12.0,25,-99.99,,,-99.99,,2013-02-22 23:11:00,
2013-02-22 15:21:00,56.0,22.0,-100.00,WSW,256,8.0,18.0,26,-99.99,,,-99.99,,2013-02-22 23:21:00,
2013-02-22 15:31:00,57.0,23.0,-100.00,West,260,9.0,16.0,27,-99.99,,,-99.99,,2013-02-22 23:31:00,
2013-02-22 15:41:00,56.0,24.0,-100.00,WSW,250,9.0,15.0,29,-99.99,,,-99.99,,2013-02-22 23:41:00,
2013-02-22 15:52:00,56.0,26.0,-100.00,WSW,255,9.0,17.0,31,-99.99,,,-99.99,,2013-02-22 23:52:00,
2013-02-22 16:01:00,56.0,27.0,-100.00,SW,235,10.0,16.0,33,-99.99,,,-99.99,,2013-02-23 00:01:00,
2013-02-22 16:11:00,56.0,28.0,-100.00,West,272,8.0,13.0,34,-99.99,,,-99.99,,2013-02-23 00:11:00,
2013-02-22 16:21:00,56.0,28.0,-100.00,WSW,258,8.0,14.0,34,-99.99,,,-99.99,,2013-02-23 00:21:00,
2013-02-22 16:31:00,55.0,26.0,-100.00,West,277,10.0,13.0,33,-99.99,,,-99.99,,2013-02-23 00:31:00,
2013-02-22 16:41:00,54.0,27.0,-100.00,WSW,249,11.0,18.0,35,-99.99,,,-99.99,,2013-02-23 00:41:00,
2013-02-22 16:51:00,54.0,27.0,-100.00,WSW,256,9.0,14.0,35,-99.99,,,-99.99,,2013-02-23 00:51:00,
2013-02-22 17:01:00,54.0,27.0,-100.00,WSW,255,10.0,15.0,35,-99.99,,,-99.99,,2013-02-23 01:01:00,
2013-02-22 17:11:00,53.0,25.0,-100.00,WSW,254,9.0,14.0,34,-99.99,,,-99.99,,2013-02-23 01:11:00,
2013-02-22 17:21:00,53.0,26.0,-100.00,West,265,8.0,12.0,35,-99.99,,,-99.99,,2013-02-23 01:21:00,
2013-02-22 17:31:00,53.0,26.0,-100.00,West,274,7.0,12.0,35,-99.99,,,-99.99,,2013-02-23 01:31:00,
2013-02-22 17:41:00,52.0,28.0,-100.00,West,280,7.0,10.0,39,-99.99,,,-99.99,,2013-02-23 01:41:00,
2013-02-22 17:51:00,51.0,29.0,-100.00,West,280,5.0,8.0,43,-99.99,,,-99.99,,2013-02-23 01:51:00,
2013-02-22 18:01:00,50.0,29.0,-100.00,WNW,291,5.0,7.0,45,-99.99,,,-99.99,,2013-02-23 02:01:00,
2013-02-22 18:11:00,49.0,30.0,-100.00,NW,308,4.0,6.0,48,-99.99,,,-99.99,,2013-02-23 02:11:00,
2013-02-22 18:21:00,49.0,31.0,-100.00,North,3,3.0,6.0,50,-99.99,,,-99.99,,2013-02-23 02:21:00,
2013-02-22 18:31:00,48.0,30.0,-100.00,North,352,3.0,5.0,50,-99.99,,,-99.99,,2013-02-23 02:31:00,
2013-02-22 18:41:00,47.0,30.0,-100.00,NNW,341,3.0,5.0,51,-99.99,,,-99.99,,2013-02-23 02:41:00,
2013-02-22 18:52:00,47.0,30.0,-100.00,NNW,338,4.0,6.0,51,-99.99,,,-99.99,,2013-02-23 02:52:00,
2013-02-22 19:01:00,47.0,31.0,-100.00,NNW,340,2.0,4.0,53,-99.99,,,-99.99,,2013-02-23 03:01:00,
2013-02-22 19:11:00,46.0,31.0,-100.00,North,358,2.0,3.0,56,-99.99,,,-99.99,,2013-02-23 03:11:00,
2013-02-22 19:21:00,45.0,31.0,-100.00,NNE,19,3.0,4.0,58,-99.99,,,-99.99,,2013-02-23 03:21:00,
2013-02-22 19:31:00,45.0,31.0,-100.00,NNE,19,3.0,4.0,58,-99.99,,,-99.99,,2013-02-23 03:31:00,
2013-02-22 19:41:00,42.0,32.0,-100.00,ENE,65,5.0,6.0,67,-99.99,,,-99.99,,2013-02-23 03:41:00,
2013-02-22 19:51:00,42.0,32.0,-100.00,ENE,71,5.0,7.0,68,-99.99,,,-99.99,,2013-02-23 03:51:00,
2013-02-22 20:01:00,42.0,32.0,-100.00,ENE,71,8.0,9.0,67,-99.99,,,-99.99,,2013-02-23 04:01:00,
2013-02-22 20:11:00,41.0,32.0,-100.00,NE,45,8.0,10.0,69,-99.99,,,-99.99,,2013-02-23 04:11:00,
2013-02-22 20:21:00,42.0,31.0,-100.00,ENE,58,5.0,8.0,66,-99.99,,,-99.99,,2013-02-23 04:21:00,
2013-02-22 20:31:00,43.0,31.0,-100.00,NE,47,5.0,6.0,63,-99.99,,,-99.99,,2013-02-23 04:31:00,
2013-02-22 20:41:00,43.0,31.0,-100.00,NE,44,4.0,6.0,63,-99.99,,,-99.99,,2013-02-23 04:41:00,
2013-02-22 20:51:00,42.0,31.0,-100.00,ENE,63,5.0,7.0,66,-99.99,,,-99.99,,2013-02-23 04:51:00,
2013-02-22 21:01:00,42.0,31.0,-100.00,ENE,63,5.0,7.0,66,-99.99,,,-99.99,,2013-02-23 05:01:00,
2013-02-22 21:11:00,41.0,31.0,-100.00,NNE,27,3.0,5.0,67,-99.99,,,-99.99,,2013-02-23 05:11:00,
2013-02-22 21:22:00,42.0,31.0,-100.00,NNW,343,2.0,3.0,66,-99.99,,,-99.99,,2013-02-23 05:22:00,
2013-02-22 21:32:00,42.0,31.0,-100.00,NNE,20,2.0,3.0,64,-99.99,,,-99.99,,2013-02-23 05:32:00,
2013-02-22 21:41:00,42.0,30.0,-100.00,NNE,33,2.0,3.0,63,-99.99,,,-99.99,,2013-02-23 05:41:00,
2013-02-22 21:52:00,42.0,31.0,-100.00,North,350,2.0,3.0,66,-99.99,,,-99.99,,2013-02-23 05:52:00,
2013-02-22 22:01:00,41.0,31.0,-100.00,East,84,2.0,4.0,68,-99.99,,,-99.99,,2013-02-23 06:01:00,
2013-02-22 22:11:00,38.0,30.0,-100.00,North,355,3.0,6.0,74,-99.99,,,-99.99,,2013-02-23 06:11:00,
2013-02-22 22:22:00,40.0,31.0,-100.00,NNE,24,2.0,4.0,70,-99.99,,,-99.99,,2013-02-23 06:22:00,
2013-02-22 22:31:00,39.0,31.0,-100.00,NNE,31,2.0,4.0,72,-99.99,,,-99.99,,2013-02-23 06:31:00,
2013-02-22 22:41:00,38.0,31.0,-100.00,NE,41,3.0,4.0,75,-99.99,,,-99.99,,2013-02-23 06:41:00,
2013-02-22 22:51:00,38.0,31.0,-100.00,NNE,27,3.0,4.0,75,-99.99,,,-99.99,,2013-02-23 06:51:00,
2013-02-22 23:01:00,37.0,30.0,-100.00,NNE,21,2.0,3.0,77,-99.99,,,-99.99,,2013-02-23 07:01:00,
2013-02-22 23:11:00,39.0,32.0,-100.00,North,9,2.0,2.0,75,-99.99,,,-99.99,,2013-02-23 07:11:00,
2013-02-22 23:21:00,39.0,31.0,-100.00,NE,39,3.0,4.0,72,-99.99,,,-99.99,,2013-02-23 07:21:00,
2013-02-22 23:31:00,39.0,30.0,-100.00,NNE,33,2.0,4.0,71,-99.99,,,-99.99,,2013-02-23 07:31:00,
2013-02-22 23:41:00,39.0,31.0,-100.00,NNE,12,2.0,3.0,73,-99.99,,,-99.99,,2013-02-23 07:41:00,
2013-02-22 23:51:00,40.0,30.0,-100.00,North,10,3.0,4.0,68,-99.99,,,-99.99,,2013-02-23 07:51:00,